N9WFD Weather Reports


Display with metric or nautical units.
time (UTC)temp
F
wind
direction
speed
MPH
gust
MPH
rain 1hr
in
rain 24hr
in
rain mn
in
humidity
%
barometer
mb
20260903104502 77 332 3.0 5.0 0.00 0.01 0.01 87 1011.5
20260903103105 78 304 1.0 3.0 0.00 0.02 0.01 86 1011.3
20260903101559 78 310 1.0 4.0 0.00 0.02 0.01 87 1011.3
20260903100100 77 302 1.0 4.0 0.00 0.02 0.01 88 1011.4
20260903094602 77 75 1.0 3.0 0.00 0.02 0.01 88 1011.3
20260903093103 77 78 1.0 3.0 0.00 0.02 0.01 88 1011.3
20260903091555 77 79 0.0 0.0 0.00 0.02 0.01 88 1011.3
20260903090054 78 79 0.0 2.0 0.00 0.02 0.01 88 1011.3
20260903084557 78 79 0.0 0.0 0.00 0.02 0.01 87 1011.4
20260903083056 78 79 2.0 4.0 0.00 0.02 0.01 87 1011.5
20260903081611 78 4 0.0 2.0 0.00 0.02 0.01 87 1011.4
20260903080048 79 3 1.0 3.0 0.00 0.02 0.01 87 1011.5
20260903074553 79 316 0.0 2.0 0.00 0.02 0.01 86 1011.2
20260903073044 79 316 1.0 3.0 0.00 0.02 0.01 86 1011.1
20260903071551 79 316 0.0 2.0 0.00 0.02 0.01 86 1011.1
20260903070043 79 316 0.0 1.0 0.00 0.02 0.01 86 1011.2
20260903064548 80 316 0.0 3.0 0.00 0.02 0.01 86 1011.2
20260903063045 80 316 0.0 2.0 0.00 0.02 0.01 86 1011.2
20260903061540 80 316 0.0 2.0 0.00 0.02 0.01 86 1011.3
20260903060042 80 316 1.0 3.0 0.00 0.02 0.01 86 1011.4
20260903054537 80 316 1.0 3.0 0.00 0.02 0.01 86 1011.4
20260903053037 80 316 1.0 3.0 0.00 0.02 0.01 87 1011.3
20260903051534 79 316 2.0 3.0 0.00 0.02 0.01 87 1011.3
20260903050042 79 316 0.0 2.0 0.00 0.02 0.01 87 1011.3
20260903044534 80 316 2.0 4.0 0.00 0.02 0.01 86 1011.1
20260903043029 80 337 0.0 1.0 0.00 0.02 0.01 85 1011.1
20260903041530 80 339 2.0 3.0 0.00 0.02 0.01 85 1011.0
20260903040028 81 339 1.0 3.0 0.00 0.02 0.01 84 1011.0
20260903034533 81 340 0.0 3.0 0.00 0.02 0.01 84 1011.1
20260903033101 81 340 1.0 2.0 0.00 0.02 0.01 84 1011.1
20260903031556 81 340 0.0 1.0 0.00 0.02 0.01 83 1011.1
20260903030109 82 341 0.0 2.0 0.00 0.02 0.01 82 1011.1
20260903024553 82 340 0.0 3.0 0.01 0.02 0.01 81 1011.1
20260903023052 82 347 0.0 2.0 0.01 0.02 0.01 81 1011.0
20260903021552 83 347 1.0 4.0 0.01 0.02 0.01 79 1010.9
20260903014547 84 21 0.0 2.0 0.00 0.01 0.00 78 1010.9
20260903013047 84 21 0.0 0.0 0.00 0.01 0.00 77 1010.8
20260903011547 85 21 0.0 2.0 0.00 0.01 0.00 75 1010.6
20260903010046 86 21 0.0 1.0 0.00 0.01 0.00 72 1010.4
20260903004543 87 21 1.0 3.0 0.00 0.01 0.00 71 1010.2
20260903003044 87 33 0.0 0.0 0.00 0.01 0.00 70 1010.3
20260903001556 87 33 0.0 2.0 0.00 0.01 0.00 69 1010.3
20260903000045 88 33 0.0 3.0 0.00 0.01 0.00 68 1010.3
20260902234540 89 36 1.0 7.0 0.00 0.01 0.00 66 1010.2
20260902233040 90 347 2.0 4.0 0.00 0.01 0.00 64 1010.0
20260902231540 90 335 3.0 9.0 0.00 0.01 0.00 63 1010.0
20260902230038 90 3 1.0 6.0 0.00 0.01 0.00 62 1009.9
20260902224513 90 324 5.0 10.0 0.00 0.01 0.00 60 1010.0
20260902223006 91 325 3.0 9.0 0.00 0.01 0.00 60 1010.2
20260902221503 91 329 4.0 9.0 0.00 0.01 0.00 58 1010.1
20260902220006 91 21 4.0 7.0 0.00 0.01 0.00 56 1010.2
20260902214502 91 325 4.0 9.0 0.00 0.01 0.00 57 1010.3
20260902213100 92 44 4.0 10.0 0.00 0.01 0.00 56 1010.3
20260902211556 92 10 3.0 9.0 0.00 0.01 0.00 57 1010.4
20260902210048 93 342 6.0 10.0 0.00 0.01 0.00 54 1010.4
20260902204607 93 10 5.0 10.0 0.00 0.01 0.00 53 1010.3
20260902203049 93 335 4.0 11.0 0.00 0.01 0.00 54 1010.4
20260902201545 92 28 5.0 12.0 0.00 0.01 0.00 54 1010.6
20260902200043 92 12 7.0 15.0 0.00 0.01 0.00 54 1010.6
20260902194554 92 336 5.0 12.0 0.00 0.01 0.00 55 1010.8
20260902193140 92 38 5.0 12.0 0.00 0.01 0.00 56 1010.9
20260902191552 92 342 5.0 10.0 0.00 0.01 0.00 56 1011.1
20260902190040 92 4 6.0 11.0 0.00 0.01 0.00 56 1011.0
20260902184540 92 356 5.0 14.0 0.00 0.01 0.00 60 1011.0
20260902183043 91 354 6.0 12.0 0.00 0.01 0.00 59 1011.3
20260902181541 90 3 3.0 10.0 0.00 0.01 0.00 62 1011.4
20260902180039 90 33 4.0 8.0 0.00 0.01 0.00 62 1011.5
20260902174538 89 317 3.0 9.0 0.00 0.01 0.00 63 1011.5
20260902173051 89 316 3.0 10.0 0.00 0.01 0.00 61 1011.6
20260902171506 89 357 6.0 10.0 0.00 0.01 0.00 61 1011.5
20260902170001 88 299 2.0 10.0 0.00 0.01 0.00 64 1011.8
20260902164528 88 331 4.0 8.0 0.00 0.01 0.00 63 1011.9
20260902163026 87 321 4.0 8.0 0.00 0.01 0.00 64 1011.9
20260902161553 87 310 4.0 8.0 0.00 0.01 0.00 66 1012.1
20260902160054 86 35 2.0 9.0 0.00 0.01 0.00 66 1012.1
20260902154553 85 341 3.0 9.0 0.00 0.01 0.00 68 1012.2
20260902153043 84 320 4.0 9.0 0.00 0.01 0.00 70 1012.3
20260902151540 83 341 4.0 8.0 0.00 0.01 0.00 70 1012.0
20260902150036 82 343 2.0 5.0 0.00 0.01 0.00 73 1012.3
20260902144530 82 337 4.0 8.0 0.00 0.01 0.00 74 1012.6
20260902143028 81 32 1.0 8.0 0.00 0.01 0.00 76 1012.8
20260902141533 80 34 1.0 3.0 0.00 0.01 0.00 77 1012.7
20260902140021 79 347 2.0 4.0 0.00 0.01 0.00 78 1012.9
20260902134521 79 70 0.0 5.0 0.00 0.01 0.00 77 1013.1
20260902133016 79 77 2.0 6.0 0.00 0.01 0.01 78 1013.2
20260902131514 78 50 1.0 6.0 0.00 0.01 0.01 79 1013.1
20260902130028 78 47 3.0 10.0 0.00 0.01 0.01 79 1013.4
20260902124544 77 60 5.0 10.0 0.00 0.01 0.01 82 1013.5
20260902123043 77 315 2.0 7.0 0.00 0.01 0.01 82 1012.5
20260902121545 76 313 3.0 6.0 0.00 0.01 0.01 82 1012.5
20260902120038 76 314 1.0 5.0 0.00 0.01 0.01 83 1012.4
20260902114544 76 327 2.0 4.0 0.00 0.01 0.01 83 1012.4
20260902113037 76 310 1.0 5.0 0.00 0.01 0.01 83 1012.1
20260902111540 76 310 2.0 5.0 0.01 0.01 0.01 84 1012.2
20260902110043 75 296 2.0 5.0 0.01 0.01 0.01 85 1012.1